Change the Weather History Date:

Thursday, March 6, 2014

  Actual Average Record
Temperature  
Mean Temperature 52 °F -  
Max Temperature 56 °F 49 °F 68 °F (2007)
Min Temperature 48 °F 33 °F 23 °F (1999)
Degree Days  
Heating Degree Days 13    
Growing Degree Days 2 (Base 50)    
Moisture  
Dew Point 49 °F    
Average Humidity 97    
Maximum Humidity 100    
Minimum Humidity 74    
Precipitation  
Precipitation 0.36 in - - ()
Sea Level Pressure  
Sea Level Pressure 29.77 in    
Wind  
Wind Speed 13 mph (SSW)    
Max Wind Speed 25 mph    
Max Gust Speed 34 mph    
Visibility 9 miles    
Events Rain    
Averages and records for this station are not official NWS values.
T = Trace of Precipitation, MM = Missing Value Source: NWS Daily Summary

Daily Weather History Graph

Daily Weather History Graph

Search for Another Location

Airport or City:

Trip Planner

Search our weather history database for the weather conditions in past years. The results will help you decide how hot, cold, wet, or windy it might be!

Date:

Astronomy

Mar. 06, 2014 Rise Set
Actual Time 6:40 AM PST 6:02 PM PST
Civil Twilight 6:09 AM PST 6:33 PM PST
Nautical Twilight 5:34 AM PST 7:08 PM PST
Astronomical Twilight 4:58 AM PST 7:44 PM PST
Moon 9:29 AM PST (3/6) No Moon Set
Length of Visible Light 12h 23m
Length of Day
11h 22m
Waxing Crescent, 33% of the Moon is Illuminated
Mar 6
Waxing Crescent
Mar 8
First Quarter
Mar 16
Full
Mar 23
Last Quarter
Mar 30
New

Hourly Weather History & Observations

Time (PST) Temp. Dew Point Humidity Pressure Visibility Wind Dir Wind Speed Gust Speed Precip Events Conditions
12:03 AM 50.0 °F 50.0 °F 100% 29.51 in 10.0 mi South 6.9 mph - N/A Rain Light Rain
12:11 AM 50.0 °F 50.0 °F 100% 29.51 in 10.0 mi South 8.1 mph - N/A   Mostly Cloudy
12:58 AM 50.7 °F 50.4 °F 99% 29.53 in 10.0 mi SSW 12.7 mph - 0.00 in   Partly Cloudy
1:20 AM 50.0 °F 50.0 °F 100% 29.52 in 10.0 mi South 9.2 mph - N/A Rain Light Rain
1:30 AM 50.0 °F 50.0 °F 100% 29.53 in 10.0 mi South 13.8 mph 18.4 mph N/A   Mostly Cloudy
1:42 AM 51.8 °F 50.0 °F 94% 29.53 in 10.0 mi South 13.8 mph - N/A Rain Light Rain
1:58 AM 51.4 °F 49.3 °F 92% 29.54 in 10.0 mi South 15.0 mph - 0.00 in Rain Light Rain
1:59 AM 51.8 °F 50.0 °F 94% 29.53 in 10.0 mi South 16.1 mph - N/A   Overcast
2:01 AM 51.8 °F 48.2 °F 88% 29.53 in 9.0 mi South 16.1 mph - N/A Rain Light Rain
2:11 AM 50.0 °F 48.2 °F 94% 29.53 in 10.0 mi South 16.1 mph 21.9 mph N/A   Mostly Cloudy
2:12 AM 50.0 °F 48.2 °F 94% 29.54 in 10.0 mi South 16.1 mph 21.9 mph N/A Rain Light Rain
2:13 AM 50.0 °F 48.2 °F 94% 29.54 in 10.0 mi South 16.1 mph 21.9 mph N/A   Mostly Cloudy
2:19 AM 50.0 °F 48.2 °F 94% 29.54 in 10.0 mi South 17.3 mph - N/A Rain Light Rain
2:46 AM 50.0 °F 48.2 °F 94% 29.54 in 10.0 mi South 15.0 mph - N/A   Overcast
2:47 AM 50.0 °F 48.2 °F 94% 29.55 in 10.0 mi South 15.0 mph - N/A Rain Light Rain
2:58 AM 50.0 °F 48.6 °F 95% 29.55 in 10.0 mi South 16.1 mph 23.0 mph 0.03 in Rain Light Rain
3:58 AM 49.6 °F 49.5 °F 99% 29.55 in 10.0 mi South 12.7 mph - 0.03 in Rain Light Rain
4:23 AM 50.0 °F 48.2 °F 94% 29.53 in 10.0 mi SSE 10.4 mph - N/A   Overcast
4:32 AM 50.0 °F 50.0 °F 100% 29.53 in 10.0 mi SSE 10.4 mph - N/A Rain Light Rain
4:36 AM 50.0 °F 48.2 °F 94% 29.53 in 10.0 mi SSE 9.2 mph - N/A   Overcast
4:37 AM 50.0 °F 50.0 °F 100% 29.53 in 10.0 mi SSE 9.2 mph - N/A Rain Light Rain
4:58 AM 49.8 °F 48.2 °F 94% 29.53 in 10.0 mi SSE 12.7 mph - 0.02 in Rain Light Rain
5:10 AM 50.0 °F 48.2 °F 94% 29.52 in 10.0 mi South 15.0 mph - N/A   Overcast
5:15 AM 50.0 °F 48.2 °F 94% 29.52 in 10.0 mi South 12.7 mph - N/A Rain Light Rain
5:47 AM 50.0 °F 48.2 °F 94% 29.53 in 10.0 mi South 13.8 mph - N/A   Overcast
5:58 AM 50.2 °F 48.0 °F 92% 29.55 in 10.0 mi South 13.8 mph - 0.01 in   Overcast
6:01 AM 50.0 °F 48.2 °F 94% 29.53 in 10.0 mi South 12.7 mph - N/A Rain Light Rain
6:58 AM 49.5 °F 47.1 °F 92% 29.55 in 10.0 mi South 12.7 mph - 0.02 in Rain Light Rain
7:58 AM 48.7 °F 48.6 °F 99% 29.55 in 10.0 mi SSE 10.4 mph - 0.03 in Rain Light Rain
8:58 AM 49.8 °F 49.6 °F 99% 29.55 in 10.0 mi SSE 8.1 mph - 0.01 in Rain Light Rain
9:16 AM 50.0 °F 50.0 °F 100% 29.53 in 10.0 mi South 8.1 mph - N/A   Mostly Cloudy
9:58 AM 52.3 °F 51.1 °F 95% 29.55 in 10.0 mi South 9.2 mph - 0.00 in   Mostly Cloudy
10:58 AM 56.5 °F 48.2 °F 74% 29.56 in 10.0 mi South 21.9 mph 32.2 mph N/A   Scattered Clouds
11:58 AM 54.9 °F 46.8 °F 74% 29.62 in 10.0 mi South 16.1 mph - N/A   Overcast
12:22 PM 53.6 °F 46.4 °F 77% 29.63 in 10.0 mi SSW 20.7 mph 26.5 mph N/A Rain Light Rain
12:36 PM 51.8 °F 50.0 °F 94% 29.66 in 7.0 mi WSW 23.0 mph 33.4 mph N/A Rain Light Rain
12:46 PM 51.8 °F 50.0 °F 94% 29.68 in 10.0 mi West 20.7 mph 32.2 mph N/A Rain Light Rain
12:51 PM 51.8 °F 50.0 °F 94% 29.69 in 10.0 mi WSW 16.1 mph 32.2 mph N/A   Light Drizzle
12:55 PM 51.8 °F 50.0 °F 94% 29.69 in 10.0 mi WSW 25.3 mph 32.2 mph N/A   Overcast
12:58 PM 51.6 °F 50.0 °F 94% 29.70 in 10.0 mi SW 21.9 mph 32.2 mph 0.01 in   Overcast
1:03 PM 51.8 °F 48.2 °F 88% 29.70 in 10.0 mi WSW 25.3 mph 32.2 mph N/A   Overcast
1:07 PM 51.8 °F 48.2 °F 88% 29.71 in 10.0 mi WSW 19.6 mph 32.2 mph N/A   Light Drizzle
1:12 PM 51.8 °F 48.2 °F 88% 29.72 in 10.0 mi SW 23.0 mph 34.5 mph N/A   Light Drizzle
1:16 PM 51.8 °F 48.2 °F 88% 29.72 in 10.0 mi SW 16.1 mph 34.5 mph N/A   Overcast
1:21 PM 51.8 °F 48.2 °F 88% 29.73 in 10.0 mi WSW 21.9 mph 28.8 mph N/A   Overcast
1:24 PM 51.8 °F 48.2 °F 88% 29.74 in 8.0 mi SW 18.4 mph 28.8 mph N/A Rain Light Rain
1:34 PM 50.0 °F 50.0 °F 100% 29.75 in 8.0 mi SW 18.4 mph 26.5 mph N/A   Overcast
1:39 PM 50.0 °F 50.0 °F 100% 29.75 in 10.0 mi SW 16.1 mph 24.2 mph N/A Rain Light Rain
1:48 PM 50.0 °F 50.0 °F 100% 29.76 in 10.0 mi SW 12.7 mph 21.9 mph N/A   Overcast
1:53 PM 50.0 °F 50.0 °F 100% 29.77 in 10.0 mi SW 12.7 mph 21.9 mph N/A   Overcast
1:58 PM 50.4 °F 49.6 °F 97% 29.78 in 10.0 mi SW 10.4 mph - 0.01 in   Overcast
2:03 PM 50.0 °F 50.0 °F 100% 29.78 in 10.0 mi SSW 12.7 mph - N/A   Overcast
2:08 PM 50.0 °F 50.0 °F 100% 29.78 in 10.0 mi SW 12.7 mph - N/A   Overcast
2:13 PM 50.0 °F 50.0 °F 100% 29.79 in 10.0 mi SSW 13.8 mph 19.6 mph N/A   Overcast
2:18 PM 50.0 °F 50.0 °F 100% 29.79 in 10.0 mi SSW 10.4 mph 19.6 mph N/A   Overcast
2:24 PM 51.8 °F 50.0 °F 94% 29.80 in 10.0 mi SSW 11.5 mph 19.6 mph N/A Rain Light Rain
2:29 PM 50.0 °F 50.0 °F 100% 29.80 in 10.0 mi SSW 13.8 mph - N/A Rain Light Rain
2:39 PM 50.0 °F 50.0 °F 100% 29.81 in 7.0 mi SW 9.2 mph - N/A Rain Light Rain
2:55 PM 50.0 °F 50.0 °F 100% 29.82 in 10.0 mi SSW 16.1 mph 19.6 mph N/A   Overcast
2:58 PM 50.5 °F 49.3 °F 95% 29.83 in 10.0 mi SSW 15.0 mph 19.6 mph 0.01 in   Overcast
3:09 PM 50.0 °F 50.0 °F 100% 29.83 in 7.0 mi SSW 16.1 mph - N/A Rain Light Rain
3:10 PM 50.0 °F 50.0 °F 100% 29.84 in 6.0 mi SSW 13.8 mph - N/A   Overcast
3:11 PM 50.0 °F 50.0 °F 100% 29.84 in 5.0 mi SSW 12.7 mph - N/A   Overcast
3:13 PM 50.0 °F 50.0 °F 100% 29.84 in 3.0 mi SSW 11.5 mph - N/A Rain Light Rain
3:18 PM 50.0 °F 48.2 °F 94% 29.84 in 1.8 mi SSW 10.4 mph - N/A Rain Rain
3:23 PM 50.0 °F 48.2 °F 94% 29.84 in 1.8 mi SSW 9.2 mph - N/A Rain Rain
3:28 PM 50.0 °F 48.2 °F 94% 29.84 in 2.5 mi SSW 8.1 mph - N/A Rain Light Rain
3:33 PM 50.0 °F 48.2 °F 94% 29.84 in 3.0 mi SSW 9.2 mph - N/A Rain Light Rain
3:38 PM 50.0 °F 48.2 °F 94% 29.84 in 6.0 mi SSW 8.1 mph - N/A Rain Light Rain
3:43 PM 50.0 °F 50.0 °F 100% 29.85 in 10.0 mi SSW 8.1 mph - N/A Rain Light Rain
3:58 PM 49.8 °F 49.6 °F 99% 29.87 in 6.0 mi SSW 11.5 mph - 0.10 in Rain Light Rain
4:03 PM 50.0 °F 50.0 °F 100% 29.86 in 5.0 mi SSW 8.1 mph - N/A Rain Light Rain
4:08 PM 50.0 °F 50.0 °F 100% 29.86 in 4.0 mi SSW 10.4 mph - N/A Rain Rain
4:23 PM 50.0 °F 50.0 °F 100% 29.86 in 5.0 mi SSW 15.0 mph - N/A Rain Light Rain
4:32 PM 50.0 °F 50.0 °F 100% 29.87 in 9.0 mi SW 13.8 mph - N/A   Overcast
4:49 PM 50.0 °F 50.0 °F 100% 29.88 in 8.0 mi SW 10.4 mph - N/A Rain Light Rain
4:58 PM 49.8 °F 49.5 °F 99% 29.90 in 7.0 mi SW 10.4 mph - 0.07 in   Light Drizzle
5:00 PM 50.0 °F 50.0 °F 100% 29.88 in 9.0 mi SW 11.5 mph - N/A   Overcast
5:05 PM 50.0 °F 50.0 °F 100% 29.89 in 10.0 mi SSW 12.7 mph - N/A   Mostly Cloudy
5:10 PM 50.0 °F 50.0 °F 100% 29.89 in 10.0 mi SW 12.7 mph - N/A   Overcast
5:15 PM 50.0 °F 50.0 °F 100% 29.89 in 10.0 mi SW 13.8 mph - N/A   Overcast
5:25 PM 50.0 °F 50.0 °F 100% 29.90 in 10.0 mi SW 13.8 mph - N/A   Mostly Cloudy
5:31 PM 50.0 °F 50.0 °F 100% 29.90 in 10.0 mi SW 13.8 mph - N/A Rain Light Rain
5:58 PM 49.5 °F 49.3 °F 99% 29.93 in 10.0 mi SSW 12.7 mph 17.3 mph 0.00 in Rain Light Rain
6:12 PM 50.0 °F 48.2 °F 94% 29.92 in 10.0 mi SSW 10.4 mph - N/A   Overcast
6:47 PM 48.2 °F 48.2 °F 100% 29.94 in 10.0 mi South 10.4 mph - N/A   Overcast
6:52 PM 48.2 °F 48.2 °F 100% 29.94 in 10.0 mi SSW 12.7 mph - N/A   Overcast
6:58 PM 48.7 °F 48.4 °F 99% 29.97 in 10.0 mi SSW 13.8 mph - 0.01 in   Overcast
7:01 PM 48.2 °F 48.2 °F 100% 29.95 in 9.0 mi SSW 12.7 mph - N/A Rain Light Rain
7:02 PM 48.2 °F 48.2 °F 100% 29.95 in 8.0 mi SSW 15.0 mph 21.9 mph N/A Rain Light Rain
7:07 PM 48.2 °F 48.2 °F 100% 29.95 in 6.0 mi SSW 11.5 mph 21.9 mph N/A Rain Light Rain
7:17 PM 48.2 °F 48.2 °F 100% 29.96 in 10.0 mi SSW 11.5 mph - N/A   Light Drizzle
7:19 PM 50.0 °F 48.2 °F 94% 29.96 in 10.0 mi SSW 10.4 mph - N/A   Overcast
7:58 PM 48.9 °F 48.7 °F 99% 29.99 in 10.0 mi SSW 10.4 mph - 0.00 in   Overcast
8:33 PM 48.2 °F 48.2 °F 100% 30.00 in 10.0 mi SSW 9.2 mph - N/A   Overcast
8:38 PM 48.2 °F 48.2 °F 100% 30.01 in 10.0 mi SSW 10.4 mph - N/A   Overcast
8:48 PM 48.2 °F 48.2 °F 100% 30.01 in 10.0 mi SW 10.4 mph 20.7 mph N/A   Overcast
8:53 PM 48.2 °F 48.2 °F 100% 30.02 in 10.0 mi SSW 10.4 mph - N/A   Overcast
8:58 PM 48.7 °F 48.6 °F 99% 30.04 in 10.0 mi SSW 9.2 mph - N/A   Overcast
9:28 PM 48.2 °F 48.2 °F 100% 30.03 in 10.0 mi SSW 13.8 mph - N/A   Overcast
9:53 PM 48.2 °F 48.2 °F 100% 30.04 in 10.0 mi SSW 15.0 mph - N/A   Overcast
9:58 PM 48.9 °F 48.7 °F 99% 30.06 in 10.0 mi SSW 15.0 mph - N/A   Overcast
10:03 PM 48.2 °F 48.2 °F 100% 30.04 in 10.0 mi SSW 13.8 mph - N/A   Overcast
10:06 PM 48.2 °F 48.2 °F 100% 30.05 in 10.0 mi SSW 12.7 mph - N/A Rain Light Rain
10:11 PM 48.2 °F 48.2 °F 100% 30.05 in 9.0 mi SSW 11.5 mph - N/A Rain Light Rain
10:16 PM 48.2 °F 48.2 °F 100% 30.05 in 9.0 mi SSW 15.0 mph - N/A   Overcast
10:21 PM 48.2 °F 48.2 °F 100% 30.05 in 10.0 mi SSW 13.8 mph - N/A   Overcast
10:23 PM 48.2 °F 48.2 °F 100% 30.05 in 10.0 mi SSW 15.0 mph - N/A   Overcast
10:25 PM 48.2 °F 48.2 °F 100% 30.05 in 8.0 mi SW 15.0 mph - N/A Rain Light Rain
10:34 PM 48.2 °F 48.2 °F 100% 30.06 in 10.0 mi SW 12.7 mph - N/A   Overcast
10:58 PM 48.7 °F 48.6 °F 99% 30.09 in 10.0 mi SSW 12.7 mph - 0.00 in   Overcast
11:58 PM 48.6 °F 48.2 °F 99% 30.12 in 10.0 mi SSW 12.7 mph - N/A   Overcast